User: anonymous   Login
Location: Unspecified
(0.0000°N, 0.0000°E)
Time: 13:42:23
(UTC+00:00)
Language:

OBJECT G - Orbit

View from above orbital plane
View from above orbital plane
View from above satellite
View from above satellite

Ground track
Ground track

The orbit data is extracted from the following two-line orbital elements,

1 41789U 16059G   17114.84047840 -.00000034 +00000-0 +28583-5 0  9998
2 41789 098.1723 177.1505 0027272 324.7672 035.1693 14.64031487030804
Epoch (UTC): 24 April 2017 20:10:17
Eccentricity: 0.0027272
inclination: 98.1723°
perigee height: 661 km
apogee height: 699 km
right ascension of ascending node: 177.1505°
argument of perigee: 324.7672°
revolutions per day: 14.64031487
mean anomaly at epoch: 35.1693°
orbit number at epoch: 3080

The dashed part of the orbit path shows where the satellite is in the earth's shadow,  

DLR